57,28/09/2015 12:05,1443441909,59.75983,-3.63408,3,4,28/09/2015 12:05,1443441944,12.372,7,11.1,0,0,59.8011,-3.6404,3,1
58,28/09/2015 13:05,1443445508,59.81083,-3.56744,9,4,28/09/2015 13:05,1443445510,12.415,22,11.1,0,0,59.8091,-3.6464,3,4
59,28/09/2015 14:05,1443449109,59.80888,-3.6386,4,2,28/09/2015 14:05,1443449106,12.415,22,11.1,0,0,59.8181,-3.6566,3,5
60,28/09/2015 15:05,1443452712,59.98586,-6.46688,170,3,28/09/2015 15:05,1443452744,12.415,22,11.1,0,0,59.8229,-3.6686,3,5
61,28/09/2015 16:05,1443456306,59.83788,-3.71436,3,2,28/09/2015 16:05,1443456307,12.415,22,11.1,0,0,59.8245,-3.6764,3,5
62,28/09/2015 17:05,1443459915,59.82952,-3.99919,137,5,28/09/2015 17:05,1443459959,12.372,26,11,0,0,59.8224,-3.6854,3,4
63,28/09/2015 18:05,1443463544,59.80888,-3.6386,2,3,28/09/2015 18:05,1443463507,12.372,26,11.1,0,0,59.8277,-3.6732,38,5
64,28/09/2015 19:05,1443467113,59.79874,-2.78055,71,3,28/09/2015 19:05,1443467108,12.415,26,11.1,0,0,59.8308,-3.6543,3,5
65,28/09/2015 20:05,1443470709,59.83987,-3.64313,3,2,28/09/2015 20:05,1443470712,12.372,26,11.1,0,0,59.839,-3.6229,3,5
66,28/09/2015 21:05,1443474333,59.84374,-3.50062,3,3,28/09/2015 21:05,1443474327,12.372,27,11,0,0,59.8527,-3.5799,26,5
67,28/09/2015 22:05,1443477907,59.89467,-3.43363,5,3,28/09/2015 22:05,1443477908,12.372,27,11.1,0,0,59.861,-3.535,3,5
68,28/09/2015 23:05,1443481507,59.89279,-3.50499,2,2,28/09/2015 23:05,1443481543,12.372,27,11.1,0,0,59.8697,-3.499,3,5
69,29/09/2015 00:06,1443485161,59.76339,-6.06492,162,2,29/09/2015 00:05,1443485112,12.372,27,11.1,0,0,59.8784,-3.4746,54,4
70,29/09/2015 01:05,1443488712,59.86366,-3.42935,4,2,29/09/2015 01:05,1443488721,12.372,29,11.1,0,0,59.8867,-3.4581,3,5
71,29/09/2015 02:05,1443492312,59.93111,-3.22352,103,2,29/09/2015 02:05,1443492335,12.372,29,11.1,0,0,59.8928,-3.4539,3,5
72,29/09/2015 03:05,1443495910,59.89651,-3.36226,3,2,29/09/2015 03:05,1443495927,12.329,29,11.1,0,0,59.8947,-3.4585,3,5
73,29/09/2015 04:05,1443499515,59.90675,-2.93384,67,6,29/09/2015 04:05,1443499508,12.329,29,11.1,0,0,59.8943,-3.4689,3,5
74,29/09/2015 05:05,1443503111,59.89279,-3.50499,2,2,29/09/2015 05:05,1443503141,12.329,30,11.1,0,0,59.8935,-3.4784,3,5
75,29/09/2015 06:06,1443506814,59.89651,-3.36226,4,3,29/09/2015 06:05,1443506713,12.329,30,11.1,0,0,59.8954,-3.4783,107,3
76,29/09/2015 07:05,1443510306,59.92754,-3.36646,2,3,29/09/2015 07:05,1443510310,12.329,30,11.1,0,0,59.9024,-3.4643,3,5
77,29/09/2015 08:05,1443513941,59.92754,-3.36646,4,5,29/09/2015 08:05,1443513909,12.329,30,11.1,0,0,59.9144,-3.4332,34,3
78,29/09/2015 09:05,1443517511,59.94554,-3.36646,6,6,29/09/2015 09:05,1443517502,12.329,29,11,0,0,59.9277,-3.3834,3,5
79,29/09/2015 10:05,1443521107,59.89831,-3.29088,3,4,29/09/2015 10:05,1443521108,12.329,29,11.1,0,0,59.9381,-3.3292,3,1
80,29/09/2015 11:05,1443524708,59.94734,-3.29499,7,2,29/09/2015 11:05,1443524727,12.329,29,11.1,0,0,59.948,-3.2715,3,4
81,29/09/2015 12:05,1443528311,59.95084,-3.15203,3,4,29/09/2015 12:05,1443528302,12.286,29,11.1,0,0,59.9544,-3.2195,3,4
82,29/09/2015 13:05,1443531908,59.95253,-3.08053,3,3,29/09/2015 13:05,1443531908,12.286,29,11,0,0,59.9568,-3.1867,3,5
83,29/09/2015 14:05,1443535525,59.95084,-3.15203,2,3,29/09/2015 14:05,1443535513,12.286,29,11.1,0,0,59.9595,-3.1741,18,5
84,29/09/2015 15:05,1443539131,60.30321,-8.95002,333,2,29/09/2015 15:05,1443539110,12.286,29,11.1,0,0,59.9645,-3.1819,21,5
85,29/09/2015 16:05,1443542720,59.95253,-3.08053,2,2,29/09/2015 16:05,1443542713,12.286,29,11.1,0,0,59.971,-3.192,3,5
86,29/09/2015 17:05,1443546311,59.95253,-3.08053,6,3,29/09/2015 17:05,1443546311,12.286,30,11,0,0,59.9802,-3.2044,3,4
87,29/09/2015 18:05,1443549917,59.98189,-3.15597,5,3,29/09/2015 18:05,1443549930,12.243,30,11.1,0,0,59.9917,-3.2029,3,3
88,29/09/2015 19:05,1443553513,59.98189,-3.15597,3,2,29/09/2015 19:05,1443553515,12.243,30,11.1,0,0,60.0054,-3.1826,3,5
89,29/09/2015 20:05,1443557115,60.00154,-3.08438,3,3,29/09/2015 20:05,1443557108,12.243,30,11.1,0,0,60.0181,-3.149,3,5
90,29/09/2015 21:05,1443560719,60.03426,-3.01656,4,3,29/09/2015 21:05,1443560743,12.243,31,11.1,0,0,60.0292,-3.0956,3,3
91,29/09/2015 22:05,1443564312,60.03588,-2.94487,7,3,29/09/2015 22:05,1443564306,12.286,31,11,0,0,60.0367,-3.0323,3,5
92,29/09/2015 23:05,1443567911,60.03588,-2.94487,4,2,29/09/2015 23:05,1443567942,12.243,31,11,0,0,60.0401,-2.9692,3,5
93,30/09/2015 00:05,1443571520,60.039,-2.80145,4,2,30/09/2015 00:05,1443571525,12.243,31,11,0,0,60.0389,-2.9156,3,3
94,30/09/2015 01:05,1443575119,60.06855,-2.87677,7,2,30/09/2015 01:05,1443575142,12.2,26,11,0,0,60.0358,-2.8847,3,2
95,30/09/2015 02:05,1443578706,59.93595,-5.81035,177,2,30/09/2015 02:05,1443578738,12.2,26,11.1,0,0,60.036,-2.8772,3,5
96,30/09/2015 03:05,1443582310,60.03746,-2.87316,2,2,30/09/2015 03:05,1443582344,12.114,26,11,0,0,60.0438,-2.8911,3,5
97,30/09/2015 04:05,1443585912,60.09098,-2.66133,785,2,30/09/2015 04:05,1443585913,12.028,26,11,0,0,60.0572,-2.9194,3,3
98,30/09/2015 05:05,1443589509,60.03746,-2.87316,6,2,30/09/2015 05:05,1443589544,12.028,28,11,0,0,60.0748,-2.9463,3,5
99,30/09/2015 06:05,1443593118,60.11099,-3.16786,21,3,30/09/2015 06:05,1443593102,12.028,28,11,0,0,60.0908,-2.9564,3,5
100,30/09/2015 07:05,1443596709,60.08646,-2.87677,3,3,30/09/2015 07:05,1443596738,12.028,28,11.1,0,0,60.1063,-2.951,3,5
101,30/09/2015 08:05,1443600321,60.16497,-2.95597,6,2,30/09/2015 08:05,1443600303,12.028,28,11.1,0,0,60.1206,-2.9289,3,4
102,30/09/2015 09:05,1443603909,60.16655,-2.884,3,4,30/09/2015 09:05,1443603914,12.028,22,11,0,0,60.1326,-2.8907,3,4
103,30/09/2015 10:05,1443607524,60.11756,-2.88038,13,2,30/09/2015 10:05,1443607510,12.028,22,11.1,0,0,60.1405,-2.8432,3,5
104,30/09/2015 11:05,1443611108,60.12208,-2.66467,2,3,30/09/2015 11:05,1443611108,12.028,22,11.1,0,0,60.142,-2.7869,3,5
105,30/09/2015 12:05,1443614710,60.12061,-2.73658,2,3,30/09/2015 12:05,1443614712,12.028,22,11,0,0,60.1357,-2.7315,3,5
106,30/09/2015 13:05,1443618309,60.08801,-2.80496,18,2,30/09/2015 13:05,1443618314,12.028,26,11,0,0,60.1247,-2.6928,3,3
107,30/09/2015 14:05,1443621912,60.13997,-2.66467,11,3,30/09/2015 14:05,1443621909,12.028,26,11.1,0,0,60.1166,-2.6772,3,3
108,30/09/2015 15:06,1443625579,60.12208,-2.66467,4,4,30/09/2015 15:05,1443625531,11.985,26,11,0,0,60.1145,-2.6823,71,1
109,30/09/2015 16:05,1443629119,60.08951,-2.73315,3,2,30/09/2015 16:05,1443629126,11.985,26,11,0,0,60.1188,-2.7014,3,4
110,30/09/2015 17:05,1443632707,60.17108,-2.66802,7,2,30/09/2015 17:05,1443632708,11.985,25,11,0,0,60.1284,-2.7255,3,5
111,30/09/2015 18:05,1443636307,60.16961,-2.74002,3,2,30/09/2015 18:05,1443636333,11.985,25,11.1,0,0,60.1429,-2.7467,3,5
112,30/09/2015 19:06,1443639974,60.20074,-2.74347,9,3,30/09/2015 19:05,1443639909,11.985,25,11,0,0,60.1572,-2.7491,65,5
113,30/09/2015 20:05,1443643506,60.17108,-2.66802,3,2,30/09/2015 20:05,1443643507,11.942,25,11,0,0,60.1703,-2.7297,3,5
114,30/09/2015 21:05,1443647110,60.17108,-2.66802,4,2,30/09/2015 21:05,1443647144,11.942,29,11,0,0,60.1789,-2.6937,3,4
115,30/09/2015 22:05,1443650706,60.21858,-2.74347,12,2,30/09/2015 22:05,1443650712,11.942,29,11,0,0,60.1792,-2.6468,3,5
116,30/09/2015 23:05,1443654326,60.14672,-2.305,15,3,30/09/2015 23:05,1443654315,11.985,29,11,0,0,60.1711,-2.5936,21,5
117,01/10/2015 00:05,1443657909,60.17525,-2.45197,3,2,01/10/2015 00:05,1443657931,11.985,29,11.1,0,0,60.1574,-2.5492,3,5
118,01/10/2015 01:05,1443661528,60.12625,-2.44889,5,4,01/10/2015 01:05,1443661510,11.985,25,11,0,0,60.1442,-2.5221,22,3
119,01/10/2015 02:05,1443665108,60.14795,-2.23304,15,2,01/10/2015 02:05,1443665141,11.985,25,11.1,0,0,60.1328,-2.5114,3,4
120,01/10/2015 03:05,1443668710,60.1249,-2.52083,6,3,01/10/2015 03:05,1443668708,11.985,25,11,0,0,60.1286,-2.5195,3,5
121,01/10/2015 04:05,1443672312,60.1249,-2.52083,3,2,01/10/2015 04:05,1443672312,11.985,25,11,0,0,60.1321,-2.54,3,3
122,01/10/2015 05:05,1443675906,60.1249,-2.52083,3,3,01/10/2015 05:05,1443675941,11.985,29,11,0,0,60.1426,-2.5687,3,5
123,01/10/2015 06:05,1443679513,60.06056,-4.31603,116,2,01/10/2015 06:05,1443679512,11.942,29,11,0,0,60.1568,-2.5937,3,3
124,01/10/2015 07:05,1443683111,60.2512,-2.67475,6,4,01/10/2015 07:05,1443683136,11.985,29,11.1,0,0,60.1737,-2.6074,3,5
125,01/10/2015 08:05,1443686712,60.1739,-2.524,3,5,01/10/2015 08:05,1443686703,11.985,29,11.1,0,0,60.1887,-2.6038,3,1
126,01/10/2015 09:05,1443690324,60.20504,-2.52718,2,3,01/10/2015 09:05,1443690312,11.985,29,11,0,0,60.2004,-2.5836,18,5
127,01/10/2015 10:05,1443693908,60.20365,-2.59928,4,2,01/10/2015 10:05,1443693915,11.942,29,11,0,0,60.2057,-2.5535,3,1
128,01/10/2015 11:05,1443697507,60.1739,-2.524,2,2,01/10/2015 11:05,1443697557,11.942,29,11,0,0,60.2031,-2.5118,3,5
129,01/10/2015 12:05,1443701127,60.17657,-2.37994,3,3,01/10/2015 12:05,1443701111,11.985,29,11,0,0,60.1948,-2.4732,18,5
130,01/10/2015 13:05,1443704708,60.17525,-2.45197,4,2,01/10/2015 13:05,1443704708,11.942,36,11,0,0,60.1823,-2.441,3,5
131,01/10/2015 14:05,1443708307,60.14544,-2.37695,5,2,01/10/2015 14:05,1443708309,11.942,36,11,0,0,60.1681,-2.4212,3,5
132,01/10/2015 15:05,1443711920,60.14672,-2.305,4,1,01/10/2015 15:05,1443711906,11.942,36,11,0,0,60.1569,-2.416,3,4
133,01/10/2015 16:05,1443715508,60.17525,-2.45197,3,3,01/10/2015 16:05,1443715535,11.942,36,11,0,0,60.1501,-2.4232,3,3
134,01/10/2015 17:05,1443719110,60.17525,-2.45197,3,2,01/10/2015 17:05,1443719116,11.899,34,11,0,0,60.149,-2.4396,3,5
135,01/10/2015 18:05,1443722709,60.17525,-2.45197,5,321,01/10/2015 18:05,1443722707,11.899,34,11,0,0,60.1526,-2.4581,3,3
136,01/10/2015 19:05,1443726307,60.14278,-2.52083,4,3,01/10/2015 19:05,1443726343,11.856,34,11,0,0,60.1616,-2.4729,3,5
137,01/10/2015 20:05,1443729917,60.17525,-2.45197,2,2,01/10/2015 20:05,1443729922,11.856,34,11,0,0,60.1701,-2.4735,3,5
138,01/10/2015 21:05,1443733514,60.17525,-2.45197,3,2,01/10/2015 21:05,1443733533,11.856,37,11,0,0,60.1776,-2.4574,3,5
139,01/10/2015 22:05,1443737117,60.17657,-2.37994,5,2,01/10/2015 22:05,1443737108,11.856,37,11,0,0,60.1807,-2.4298,3,3
140,01/10/2015 23:05,1443740707,60.17657,-2.37994,3,4,01/10/2015 23:05,1443740709,11.856,37,11,0,0,60.1772,-2.3921,3,2
141,02/10/2015 00:05,1443744318,60.20771,-2.38294,3,2,02/10/2015 00:05,1443744342,11.856,37,11,0,0,60.1681,-2.3547,3,1
142,02/10/2015 01:05,1443747906,60.12883,-2.305,6,2,02/10/2015 01:05,1443747912,11.813,35,11,0,0,60.1554,-2.3256,3,5
143,02/10/2015 02:05,1443751516,60.17908,-2.23585,8,2,02/10/2015 02:05,1443751501,11.813,35,11,0,0,60.1413,-2.3041,3,5
144,02/10/2015 03:05,1443755111,60.14672,-2.305,5,2,02/10/2015 03:05,1443755109,11.813,35,11,0,0,60.1308,-2.2954,3,3
145,02/10/2015 04:05,1443758719,60.09895,-2.23024,4,2,02/10/2015 04:05,1443758700,11.813,35,11,0,0,0,0,3,5
146,02/10/2015 05:05,1443762307,60.12883,-2.305,2,2,02/10/2015 05:05,1443762308,11.813,27,11,0,0,60.128,-2.3089,3,5
147,02/10/2015 06:05,1443765907,60.12883,-2.305,3,2,02/10/2015 06:05,1443765911,11.813,27,11,0,0,60.1345,-2.3254,3,5
148,02/10/2015 07:05,1443769520,60.17784,-2.3079,7,2,02/10/2015 07:05,1443769528,11.813,27,11,0,0,60.1439,-2.34,3,4
149,02/10/2015 08:07,1443773246,60.14672,-2.305,3,4,02/10/2015 08:05,1443773144,11.813,27,11,0,0,60.1546,-2.3467,132,2
150,02/10/2015 09:05,1443776718,60.17784,-2.3079,5,2,02/10/2015 09:05,1443776711,11.813,33,11,0,0,60.1644,-2.3427,3,1
151,02/10/2015 10:05,1443780325,60.11725,-0.35989,124,2,02/10/2015 10:05,1443780332,11.813,33,11,0,0,60.1709,-2.3267,18,5
152,02/10/2015 11:05,1443783910,60.14672,-2.305,4,3,02/10/2015 11:05,1443783912,11.813,33,11,0,0,60.1732,-2.3041,3,5
153,02/10/2015 12:05,1443787532,60.17908,-2.23585,4,2,02/10/2015 12:05,1443787512,11.813,33,11,0,0,60.171,-2.2767,18,4
154,02/10/2015 13:05,1443791106,60.18027,-2.1638,3,3,02/10/2015 13:05,1443791145,11.856,29,11,0,0,60.1631,-2.2489,3,5
155,02/10/2015 14:05,1443794708,60.14914,-2.16108,4,2,02/10/2015 14:05,1443794712,11.856,29,11,0,0,60.154,-2.2293,3,4
156,02/10/2015 15:05,1443798313,60.09895,-2.23024,11,3,02/10/2015 15:05,1443798309,11.856,29,11,0,0,60.1442,-2.2216,3,5
157,02/10/2015 16:05,1443801932,60.13126,-2.16108,3,2,02/10/2015 16:05,1443801955,11.856,29,11,0,0,60.1408,-2.2287,18,2
158,02/10/2015 17:05,1443805512,60.13126,-2.16108,2,3,02/10/2015 17:05,1443805517,11.856,26,11,0,0,60.1437,-2.2441,3,5
159,02/10/2015 18:05,1443809111,60.17908,-2.23585,2,2,02/10/2015 18:05,1443809123,11.856,26,11,0,0,60.1529,-2.2643,3,5
160,02/10/2015 19:05,1443812712,60.32696,0.2173,171,2,02/10/2015 19:05,1443812732,11.856,26,11,0,0,60.1669,-2.282,3,2
161,02/10/2015 20:05,1443816307,60.17908,-2.23585,3,2,02/10/2015 20:05,1443816344,11.856,26,11,0,0,60.1807,-2.2928,3,5
162,02/10/2015 21:05,1443819936,60.17908,-2.23585,3,2,02/10/2015 21:05,1443819938,11.856,23,11,0,0,60.1926,-2.2947,21,5
163,02/10/2015 22:05,1443823511,60.17908,-2.23585,4,3,02/10/2015 22:05,1443823538,11.813,23,11,0,0,60.2013,-2.2838,3,5
164,02/10/2015 23:05,1443827109,60.17908,-2.23585,6,2,02/10/2015 23:05,1443827102,11.813,23,11,0,0,60.2068,-2.2626,3,5
165,03/10/2015 00:05,1443830735,60.33276,-2.60914,9,3,03/10/2015 00:05,1443830713,11.813,23,11,0,0,60.2074,-2.2374,26,5
166,03/10/2015 01:05,1443834319,60.21023,-2.23867,9,2,03/10/2015 01:05,1443834324,11.813,23,11,0,0,60.2038,-2.2123,3,1
167,03/10/2015 02:05,1443837907,60.18143,-2.09174,3,3,03/10/2015 02:05,1443837916,11.813,23,11,0,0,60.1977,-2.1912,3,5
168,03/10/2015 03:05,1443841511,60.17908,-2.23585,2,2,03/10/2015 03:05,1443841506,11.813,23,11,0,0,60.1911,-2.1782,3,5
169,03/10/2015 04:05,1443845130,60.18143,-2.09174,13,2,03/10/2015 04:05,1443845110,11.77,23,11,0,0,60.1874,-2.1717,24,4
170,03/10/2015 05:05,1443848707,60.18143,-2.09174,9,2,03/10/2015 05:05,1443848713,11.77,26,11,0,0,60.1882,-2.1759,3,3
171,03/10/2015 06:05,1443852327,60.23042,-2.09437,5,3,03/10/2015 06:05,1443852310,11.77,26,11,0,0,60.1939,-2.1839,21,3
172,03/10/2015 07:05,1443855911,60.18027,-2.1638,3,3,03/10/2015 07:05,1443855932,11.77,26,11,0,0,60.2037,-2.1923,3,5
173,03/10/2015 08:05,1443859507,60.24506,-2.96342,89,2,03/10/2015 08:05,1443859544,11.77,26,11,0,0,60.2149,-2.2001,3,5
174,03/10/2015 09:05,1443863108,60.22926,-2.16652,3,3,03/10/2015 09:05,1443863145,11.77,25,11,0,0,60.2284,-2.2032,3,4
175,03/10/2015 10:05,1443866727,60.11615,-0.64779,130,3,03/10/2015 10:05,1443866709,11.77,25,11,0,0,60.2409,-2.1983,21,5
176,03/10/2015 11:05,1443870309,60.22926,-2.16652,2,1,03/10/2015 11:05,1443870316,11.77,25,11,0,0,60.2519,-2.1865,3,5
177,03/10/2015 12:05,1443873922,60.25922,-2.24149,6,1,03/10/2015 12:05,1443873936,11.856,25,11,0,0,60.2575,-2.1676,18,5
178,03/10/2015 13:05,1443877543,60.22926,-2.16652,13,4,03/10/2015 13:05,1443877511,11.856,28,11,0,0,60.2574,-2.1475,34,1
179,03/10/2015 14:05,1443881131,60.22786,0.578,168,3,03/10/2015 14:05,1443881140,11.856,28,11,0,0,60.2539,-2.127,21,5
180,03/10/2015 15:05,1443884749,60.26158,-2.09701,5,2,03/10/2015 15:05,1443884709,11.856,28,11,0,0,60.2475,-2.1114,31,4
181,03/10/2015 16:05,1443888307,60.22926,-2.16652,4,3,03/10/2015 16:05,1443888314,11.856,28,11,0,0,60.241,-2.1059,3,5
182,03/10/2015 17:05,1443891906,60.23154,-2.02221,5,2,03/10/2015 17:05,1443891913,11.813,27,11,0,0,60.2378,-2.1035,3,5
183,03/10/2015 18:05,1443895528,60.26042,-2.16926,4,3,03/10/2015 18:05,1443895524,11.856,27,11,0,0,60.2387,-2.1117,21,2
184,03/10/2015 19:05,1443899106,60.23042,-2.09437,7,2,03/10/2015 19:05,1443899105,11.813,27,11,0,0,60.245,-2.1246,3,5
185,03/10/2015 20:05,1443902707,60.26158,-2.09701,4,2,03/10/2015 20:05,1443902715,11.813,27,11,0,0,60.2544,-2.1362,3,5
186,03/10/2015 21:05,1443906319,60.46649,0.94635,184,2,03/10/2015 21:05,1443906301,11.813,22,11,0,0,60.2653,-2.1431,15,5
187,03/10/2015 22:05,1443909925,60.31056,-2.09966,8,6,03/10/2015 22:05,1443909902,11.813,22,11,0,0,60.278,-2.1431,3,5
188,03/10/2015 23:05,1443913523,60.31168,-2.02732,3,3,03/10/2015 23:05,1443913511,11.813,22,11,0,0,60.289,-2.1349,17,2
189,04/10/2015 00:05,1443917112,60.26158,-2.09701,6,2,04/10/2015 00:05,1443917110,11.813,22,11,0,0,60.297,-2.1192,3,1
190,04/10/2015 01:05,1443920716,60.31056,-2.09966,3,2,04/10/2015 01:05,1443920702,11.77,23,11,0,0,60.2997,-2.0987,3,2
191,04/10/2015 02:05,1443924311,60.2627,-2.02477,9,2,04/10/2015 02:05,1443924332,11.77,23,11,0,0,60.2972,-2.0778,3,5
192,04/10/2015 03:05,1443927908,60.26379,-1.95251,11,2,04/10/2015 03:05,1443927925,11.77,23,11,0,0,60.2909,-2.0636,3,4
193,04/10/2015 04:05,1443931508,60.2627,-2.02477,4,2,04/10/2015 04:05,1443931513,11.77,23,11,0,0,60.2828,-2.0566,3,5
194,04/10/2015 05:05,1443935110,60.26379,-1.95251,3,2,04/10/2015 05:05,1443935142,11.727,22,11,0,0,60.2753,-2.0576,3,3
195,04/10/2015 06:05,1443938706,60.2627,-2.02477,4,2,04/10/2015 06:05,1443938744,11.77,22,11,0,0,60.2705,-2.0661,3,4
196,04/10/2015 07:05,1443942310,60.31168,-2.02732,5,2,04/10/2015 07:05,1443942317,11.77,22,11,0,0,60.2702,-2.0789,3,2
197,04/10/2015 08:05,1443945907,60.26158,-2.09701,3,3,04/10/2015 08:05,1443945903,11.77,22,11,0,0,60.2743,-2.094,3,4
198,04/10/2015 09:05,1443949507,60.2627,-2.02477,2,2,04/10/2015 09:05,1443949510,11.727,24,11,0,0,60.2814,-2.1038,3,5
199,04/10/2015 10:05,1443953109,60.2627,-2.02477,67,2,04/10/2015 10:05,1443953143,11.77,24,11,0,0,60.2897,-2.1078,3,5
200,04/10/2015 11:05,1443956712,60.31056,-2.09966,2,2,04/10/2015 11:05,1443956708,11.77,24,11,0,0,60.2978,-2.1053,3,3
201,04/10/2015 12:05,1443960346,60.26158,-2.09701,3,2,04/10/2015 12:05,1443960343,11.813,24,11,0,0,60.305,-2.0978,39,2
202,04/10/2015 13:05,1443963916,60.31168,-2.02732,5,2,04/10/2015 13:05,1443963912,11.856,24,11,0,0,60.3082,-2.0848,3,3
203,04/10/2015 14:05,1443967507,60.31056,-2.09966,10,3,04/10/2015 14:05,1443967510,11.856,24,11,0,0,60.3079,-2.0706,3,4
204,04/10/2015 15:05,1443971109,60.31168,-2.02732,4,2,04/10/2015 15:05,1443971110,11.856,24,11,0,0,60.3048,-2.0573,3,4
205,04/10/2015 16:05,1443974708,60.31056,-2.09966,6,2,04/10/2015 16:05,1443974745,11.856,24,11,0,0,60.2995,-2.0477,3,5
206,04/10/2015 17:05,1443978310,60.31168,-2.02732,3,4,04/10/2015 17:05,1443978307,11.813,23,11,0,0,60.2954,-2.0449,3,4
207,04/10/2015 18:05,1443981917,60.31168,-2.02732,6,3,04/10/2015 18:05,1443981943,11.813,23,11,0,0,60.2932,-2.0481,3,3
208,04/10/2015 19:05,1443985507,60.31276,-1.95498,2,3,04/10/2015 19:05,1443985510,11.77,23,11,0,0,60.2938,-2.0556,3,5
209,04/10/2015 20:05,1443989107,60.31056,-2.09966,2,2,04/10/2015 20:05,1443989120,11.77,23,11,0,0,60.2976,-2.0657,3,3
210,04/10/2015 21:05,1443992711,60.31056,-2.09966,3,2,04/10/2015 21:05,1443992742,11.77,20,11,0,0,60.3042,-2.0752,3,5
211,04/10/2015 22:05,1443996309,60.34287,-2.02989,2,2,04/10/2015 22:05,1443996310,11.77,20,11,0,0,60.3116,-2.0818,3,5
212,04/10/2015 23:05,1443999908,60.34174,-2.10232,5,2,04/10/2015 23:05,1443999943,11.77,20,11,0,0,60.3198,-2.0858,3,5
213,05/10/2015 00:05,1444003508,60.34174,-2.10232,3,2,05/10/2015 00:05,1444003544,11.77,20,11,0,0,60.3265,-2.0842,3,5
214,05/10/2015 01:05,1444007120,60.31168,-2.02732,11,2,05/10/2015 01:05,1444007116,11.77,24,11,0,0,60.3316,-2.0771,3,3
215,05/10/2015 02:05,1444010712,60.34287,-2.02989,5,2,05/10/2015 02:05,1444010707,11.77,24,11,0,0,60.3346,-2.0673,3,3
216,05/10/2015 03:05,1444014311,60.36063,-2.02989,8,3,05/10/2015 03:05,1444014343,11.727,24,11,0,0,60.3353,-2.0569,3,5
217,05/10/2015 04:05,1444017908,60.34395,-1.95745,3,2,05/10/2015 04:05,1444017909,11.727,24,11,0,0,60.3347,-2.0482,3,5
218,05/10/2015 05:05,1444021507,60.31056,-2.09966,3,2,05/10/2015 05:05,1444021506,11.727,23,11,0,0,60.3329,-2.0413,3,5
219,05/10/2015 06:05,1444025136,60.31168,-2.02732,3,2,05/10/2015 06:05,1444025109,11.727,23,11,0,0,60.3311,-2.0383,21,3
220,05/10/2015 07:05,1444028710,60.39397,-1.88739,10,3,05/10/2015 07:05,1444028709,11.727,23,11,0,0,60.3295,-2.0395,3,2
221,05/10/2015 08:07,1444032448,60.57525,-7.76846,364,2,05/10/2015 08:05,1444032343,11.727,23,11,0,0,60.3295,-2.0436,141,4
222,05/10/2015 09:05,1444035911,60.31168,-2.02732,2,2,05/10/2015 09:05,1444035909,11.727,27,11,0,0,60.3319,-2.0493,3,5
223,05/10/2015 10:05,1444039508,60.36063,-2.02989,18,2,05/10/2015 10:05,1444039509,11.727,27,11,0,0,60.3365,-2.0569,3,2
224,05/10/2015 11:05,1444043108,60.34287,-2.02989,4,2,05/10/2015 11:05,1444043143,11.77,27,11,0,0,60.3435,-2.0632,3,5
225,05/10/2015 12:05,1444046712,60.31481,-1.81026,163,4,05/10/2015 12:05,1444046710,11.77,27,11,0,0,60.3523,-2.0667,3,5
226,05/10/2015 13:05,1444050310,60.34287,-2.02989,4,3,05/10/2015 13:05,1444050306,11.813,26,11,0,0,60.3616,-2.0651,3,1
227,05/10/2015 14:05,1444053909,60.35391,-1.08776,83,2,05/10/2015 14:05,1444053909,11.813,26,11,0,0,60.3698,-2.0591,3,5
228,05/10/2015 15:05,1444057526,60.34287,-2.02989,8,3,05/10/2015 15:05,1444057502,11.813,26,11,0,0,60.3765,-2.0512,20,4
229,05/10/2015 16:05,1444061130,60.39292,-1.95993,3,2,05/10/2015 16:05,1444061116,11.813,26,11,0,0,60.38,-2.0419,16,5
230,05/10/2015 17:05,1444064749,60.42413,-1.96241,6,3,05/10/2015 17:05,1444064702,11.856,33,11,0,0,60.3817,-2.033,34,1
231,05/10/2015 18:05,1444068310,60.39183,-2.03246,2,2,05/10/2015 18:05,1444068310,11.856,33,11,0,0,60.3829,-2.0279,3,5
232,05/10/2015 19:05,1444071959,60.27869,-4.05469,146,2,05/10/2015 19:05,1444071929,11.856,33,11,0,0,60.3845,-2.025,53,4
233,05/10/2015 20:05,1444075507,60.36172,-1.95745,3,2,05/10/2015 20:05,1444075545,11.856,33,11,0,0,60.3866,-2.0245,3,5
234,05/10/2015 21:05,1444079110,60.44582,-1.67186,71,4,05/10/2015 21:05,1444079110,11.856,30,11,0,0,60.39,-2.0248,3,3
235,05/10/2015 22:05,1444082726,60.39292,-1.95993,3,1,05/10/2015 22:05,1444082701,11.856,30,11,0,0,60.3956,-2.0273,18,2
236,05/10/2015 23:05,1444086307,60.45242,-1.01784,89,1,05/10/2015 23:05,1444086310,11.856,30,11,0,0,60.4032,-2.0313,3,5
237,06/10/2015 00:05,1444089918,60.44186,-1.96241,6,2,06/10/2015 00:05,1444089949,11.856,30,11,0,0,60.4134,-2.0349,3,5
238,06/10/2015 01:06,1444093565,60.44186,-1.96241,3,2,06/10/2015 01:05,1444093538,11.856,33,11,0,0,60.4251,-2.0357,49,3
239,06/10/2015 02:05,1444097125,60.42413,-1.96241,2,2,06/10/2015 02:05,1444097110,11.856,33,11,0,0,60.4357,-2.0194,18,5
240,06/10/2015 03:05,1444100709,60.74152,2.2026,241,2,06/10/2015 03:05,1444100722,11.856,33,11,0,0,60.447,-2.0223,3,1
241,06/10/2015 04:05,1444104331,60.5021,-2.11301,15,2,06/10/2015 04:05,1444104309,11.856,33,11,0,0,60.4546,-2.0111,22,1
242,06/10/2015 05:05,1444107958,60.44077,-2.03503,11,2,06/10/2015 05:05,1444107910,11.856,26,11,0,0,60.4594,-2.0014,50,4
243,06/10/2015 06:05,1444111511,60.47413,-1.89218,3,3,06/10/2015 06:05,1444111500,11.813,26,11,0,0,60.464,-1.9938,3,5
244,06/10/2015 07:05,1444115111,60.44186,-1.96241,3,3,06/10/2015 07:05,1444115131,11.813,26,11,0,0,60.4667,-1.9882,3,3
245,06/10/2015 08:06,1444118797,60.79676,-7.00639,284,2,06/10/2015 08:05,1444118713,11.813,26,11,0,0,60.4695,-1.9839,81,2
246,06/10/2015 09:05,1444122312,60.47308,-1.9649,3,1,06/10/2015 09:05,1444122359,11.813,28,11,0,0,60.4739,-1.9827,3,5
247,06/10/2015 10:05,1444125912,60.62867,-4.68471,166,2,06/10/2015 10:05,1444125911,11.813,28,11,0,0,60.4794,-1.9825,3,5
248,06/10/2015 11:05,1444129510,60.47413,-1.89218,3,2,06/10/2015 11:05,1444129513,11.813,28,11,0,0,60.4851,-1.9804,3,5
249,06/10/2015 12:05,1444133120,60.55503,-3.43072,102,2,06/10/2015 12:05,1444133144,11.813,28,11,0,0,60.4939,-1.981,3,5
250,06/10/2015 13:05,1444136742,60.52306,-1.89459,7,3,06/10/2015 13:05,1444136713,11.813,32,11,0,0,60.5018,-1.9782,18,1
251,06/10/2015 14:05,1444140320,60.52201,-1.9674,3,1,06/10/2015 14:05,1444140321,11.813,32,11,0,0,60.5108,-1.9753,3,3
252,06/10/2015 15:05,1444143934,60.55431,-1.897,6,2,06/10/2015 15:05,1444143908,11.813,32,11,0,0,60.5197,-1.9702,18,4
253,06/10/2015 16:05,1444147508,60.51978,-2.11301,11,2,06/10/2015 16:05,1444147506,11.813,32,11,0,0,60.5251,-1.9654,3,5
254,06/10/2015 17:05,1444151110,60.55431,-1.897,5,3,06/10/2015 17:05,1444151113,11.813,41,11,0,0,60.5349,-1.958,3,5
255,06/10/2015 18:05,1444154711,60.48738,0.21841,147,2,06/10/2015 18:05,1444154706,11.813,41,11,0,0,60.5412,-1.9538,3,5